Tracking 25709 objects as of 23-May-2022
HD Live streaming from Space Station
objects crossing your sky now

TIROS 2 DEB *

Track TIROS 2 DEB * now!
10-day predictions


NORAD ID: 5922
Int'l Code: 1960-016E
Perigee: 977.1 km
Apogee: 1,037.9 km
Inclination: 47.0 °
Period: 105.1 minutes
Semi major axis: 7378 km
RCS: 0.0192 m2 (small)
Launch date: November 23, 1960
Source: United States (US)
Launch site: AIR FORCE EASTERN TEST RANGE (AFETR)

Note: This is SATELLITE DEBRIS
aabbcc
Your satellite tracking list
Your tracking list is empty




NASA's NSSDC Master Catalog

Two Line Element Set (TLE):
1 05922U 60016E   22143.28536906 -.00000055  00000-0  83409-4 0  9991
2 05922  47.0312  97.2026 0041167 244.6645 261.9062 13.69786069547729
Source of the keplerian elements: AFSPC